Location: Newark
(33.6333°S, 78.8500°W)
Time: 05:42:55
(UTC+00:00)

Tiros 1 - Pass Details

Date: 19 October 2019
Orbit: 630 x 664 km, 48.4° (Epoch: 16 November)

Event Time Altitude Azimuth Distance (km) Brightness Sun altitude
Rises 23:25:50 0° 225° (SW) 2,941 11.6 0.4°
Reaches altitude 10° 23:28:46 10° 207° (SSW) 2,030 10.4 -0.2°
Maximum altitude 23:32:08 19° 161° (SSE) 1,506 9.0 -0.9°
Drops below altitude 10° 23:35:31 10° 114° (ESE) 2,026 9.2 -1.6°
Enters shadow 23:38:13 - 97° (E) 2,868 9.9 -2.1°
Sets 23:38:25 0° 96° (E) 2,935 - -2.2°
